Total_Precipitation_Accumulation
3.42 3.38 3.39 3.50 3.28 3.31 3.60 3.93 3.72 3.73 3.83 3.62 3.26 3.10 3.25 3.28 3.36 3.43 3.55 3.71 3.63 3.79 4.46 4.68 4.32 3.92 3.77 3.38 3.16 2.89 2.68 2.53 2.28 2.01 1.86 1.90 1.98 2.02 1.95 1.86 1.90 1.87 1.77
3.59 3.56 3.36 3.48 3.34 3.27 3.43 3.72 3.72 4.16 4.13 4.03 3.56 3.29 3.29 3.36 3.39 3.46 3.48 3.86 3.79 3.61 4.02 4.47 4.62 4.49 4.29 3.98 3.76 3.44 3.16 2.95 2.66 2.20 1.94 1.89 1.96 2.04 2.04 2.09 2.06 2.00 1.96
3.59 3.57 3.51 3.38 3.38 3.41 3.64 3.75 3.79 4.15 4.12 4.04 3.88 3.56 3.39 3.13 3.04 3.20 3.21 3.44 3.40 3.34 3.60 4.03 4.40 4.57 4.65 4.53 4.43 4.21 3.71 3.33 2.95 2.48 2.14 1.93 1.85 1.92 1.97 2.03 2.04 2.00 2.00
3.50 3.76 3.58 3.31 3.41 3.38 3.58 3.98 4.10 4.32 4.48 4.41 4.10 3.72 3.48 3.35 3.12 3.13 2.98 2.95 3.24 2.87 3.17 3.66 4.01 4.26 4.80 5.11 5.22 5.20 4.63 3.86 3.22 2.85 2.54 2.27 2.02 1.91 1.90 2.00 2.07 2.01 1.92
3.25 3.61 3.57 3.49 3.51 3.73 3.76 3.53 4.15 4.49 4.64 4.57 3.81 3.64 3.24 3.15 3.03 2.80 2.87 2.76 2.99 3.06 3.12 3.08 3.26 3.60 4.55 5.52 5.90 6.03 5.81 4.84 3.93 3.45 3.14 2.87 2.56 2.22 1.97 1.96 2.03 1.96 1.83
3.13 3.54 3.37 3.37 3.49 3.88 4.05 4.13 4.57 4.57 4.40 4.54 3.77 3.42 2.96 2.59 2.58 2.63 2.45 2.48 2.61 2.54 2.83 3.26 3.62 3.34 3.85 4.57 5.09 5.55 5.92 5.68 4.94 4.15 3.75 3.46 3.23 2.85 2.43 2.19 2.09 2.05 1.93
3.29 3.84 3.48 3.80 3.70 3.80 3.89 4.04 4.35 4.36 4.11 4.35 4.40 3.73 2.82 2.27 2.25 2.14 2.14 2.30 2.22 2.23 2.60 3.26 3.54 3.62 3.41 3.25 3.48 4.12 5.02 5.52 5.35 4.67 4.26 4.01 3.87 3.49 3.04 2.72 2.44 2.28 2.12
3.38 3.47 3.75 3.66 3.71 3.89 3.68 3.75 4.14 4.06 3.62 3.97 4.41 4.47 3.56 2.89 2.32 1.77 1.95 2.04 2.18 2.36 2.32 2.42 2.88 3.48 3.47 3.53 3.11 2.95 3.74 4.77 5.30 5.26 4.87 4.49 4.21 3.87 3.54 3.22 2.85 2.51 2.22
3.40 3.52 3.50 3.47 3.62 3.56 3.58 3.59 3.77 3.93 3.82 3.74 4.11 4.54 3.94 3.25 2.57 2.00 1.89 1.88 2.17 2.46 2.41 2.42 2.65 3.11 3.33 3.66 3.70 3.42 3.11 3.50 4.51 5.61 5.77 5.09 4.24 3.64 3.39 3.37 3.29 2.99 2.70
3.63 3.45 3.32 3.29 3.30 3.16 3.32 3.10 3.41 3.68 3.89 3.58 3.68 3.65 3.50 3.46 3.33 2.61 2.09 1.97 2.18 2.37 2.46 2.40 2.52 2.87 3.16 3.51 3.79 3.49 2.86 2.65 3.24 4.51 5.31 5.30 4.69 3.82 3.40 3.58 3.95 3.86 3.46
3.59 3.23 3.26 3.28 3.27 3.08 2.98 2.95 3.25 3.23 3.35 3.39 3.46 3.43 3.48 3.43 3.25 3.01 2.59 2.35 2.22 1.95 1.96 2.10 2.34 2.66 2.90 3.12 3.50 3.38 3.08 2.95 2.89 3.12 3.64 4.08 4.35 4.13 3.78 3.83 4.35 4.69 4.53
3.17 2.92 2.95 3.04 2.96 2.93 2.96 2.92 2.98 3.00 3.10 3.18 3.21 3.20 3.35 3.30 3.28 3.34 2.95 2.67 2.43 2.06 1.88 1.94 2.12 2.37 2.56 2.63 2.67 2.90 2.94 2.92 2.72 2.55 2.59 2.72 3.07 3.53 3.82 4.13 4.63 5.11 5.39
2.47 2.43 2.57 2.70 2.59 2.64 2.68 2.88 2.80 2.72 2.88 3.08 3.09 3.05 3.10 3.06 3.10 3.29 3.21 2.68 2.48 2.25 2.22 2.01 1.90 2.18 2.31 2.49 2.72 2.70 2.51 2.58 2.35 2.22 2.20 2.28 2.47 2.74 3.02 3.37 3.96 4.58 5.06
2.13 2.22 2.34 2.40 2.35 2.38 2.32 2.71 2.54 2.49 2.64 2.72 2.63 3.01 2.95 2.65 2.85 3.04 3.19 3.20 2.95 2.71 2.69 2.32 2.02 2.07 2.18 2.40 2.60 2.50 2.20 2.18 1.98 1.85 1.86 1.93 2.01 2.17 2.41 2.67 2.94 3.30 3.70
2.13 2.22 2.17 2.27 2.32 2.37 2.43 2.58 2.44 2.41 2.66 2.61 2.52 2.80 2.73 2.53 2.66 2.79 3.07 3.33 3.53 3.26 2.97 2.72 2.36 2.12 2.15 2.34 2.58 2.30 2.27 2.24 1.99 1.93 1.86 1.75 1.70 1.77 1.90 2.11 2.29 2.48 2.79
2.26 2.28 2.24 2.38 2.34 2.31 2.34 2.42 2.19 2.22 2.48 2.54 2.60 2.80 2.73 2.60 2.74 2.80 3.02 3.34 3.71 3.74 3.16 2.56 2.38 2.20 2.36 2.35 2.56 2.23 2.14 2.22 2.01 1.83 1.74 1.71 1.66 1.69 1.72 1.86 2.05 2.22 2.37
2.30 2.24 2.19 2.29 2.31 2.27 2.33 2.40 2.16 2.29 2.41 2.44 2.45 2.61 2.66 2.82 2.91 2.90 3.04 3.21 3.53 3.82 3.40 2.72 2.56 2.53 2.68 2.63 2.50 2.22 1.98 1.90 1.74 1.73 1.59 1.54 1.53 1.62 1.70 1.73 1.88 2.05 2.11
2.24 2.31 2.31 2.30 2.22 2.26 2.48 2.54 2.32 2.40 2.49 2.45 2.48 2.64 2.52 2.76 2.96 2.92 3.04 3.03 3.18 3.58 3.44 3.06 2.94 2.86 2.85 2.70 2.66 2.46 2.09 1.89 1.83 1.86 1.64 1.54 1.52 1.53 1.65 1.64 1.73 1.90 2.03
2.26 2.37 2.46 2.48 2.50 2.57 2.61 2.67 2.71 2.63 2.51 2.43 2.50 2.52 2.49 2.73 2.74 2.89 3.02 2.97 2.97 3.12 3.36 3.20 3.07 3.15 3.05 2.91 2.88 2.65 2.41 2.37 1.99 1.91 1.84 1.74 1.72 1.73 1.76 1.76 1.75 1.81 1.94
2.35 2.47 2.50 2.63 2.86 2.96 2.95 2.93 2.78 2.69 2.62 2.56 2.51 2.46 2.41 2.47 2.54 2.70 2.78 2.90 2.99 3.12 3.27 3.25 3.24 3.34 3.27 3.28 3.35 3.09 2.87 2.76 2.38 1.97 2.03 1.91 1.85 1.76 1.69 1.66 1.66 1.72 1.85
2.20 2.52 2.70 2.81 3.10 3.25 3.04 3.07 2.99 2.87 2.90 2.68 2.54 2.45 2.31 2.33 2.42 2.49 2.38 2.56 2.78 2.91 2.92 3.01 3.09 3.32 3.34 3.43 3.39 3.25 3.10 3.08 2.85 2.32 2.18 2.05 2.00 1.86 1.84 1.86 1.79 1.75 1.76
2.16 2.36 2.52 2.66 2.73 2.52 2.67 2.69 2.67 2.75 2.82 2.69 2.59 2.55 2.38 2.25 2.21 2.14 2.04 2.09 2.26 2.41 2.57 2.85 2.97 3.13 3.29 3.45 3.69 3.70 3.53 3.32 3.09 2.77 2.69 2.52 2.27 2.18 2.00 1.84 1.89 1.75 1.60
2.19 2.27 2.33 2.38 2.36 2.41 2.42 2.15 2.08 2.08 2.27 2.39 2.45 2.45 2.16 1.97 2.09 1.96 1.99 1.99 2.01 2.15 2.29 2.59 2.75 2.81 3.07 3.31 3.65 3.72 3.74 3.64 3.40 3.22 3.11 2.90 2.58 2.35 2.10 1.98 2.01 1.75 1.59
2.31 2.32 2.40 2.43 2.45 2.37 2.30 2.03 2.00 1.91 2.03 2.15 2.22 2.26 2.21 2.15 2.16 2.24 2.14 1.97 1.86 1.97 2.14 2.09 2.09 2.26 2.56 3.03 3.29 3.32 3.51 3.53 3.36 3.16 3.11 2.99 2.68 2.45 2.20 2.12 2.13 1.84 1.68
2.45 2.43 2.55 2.62 2.59 2.47 2.40 2.17 2.13 1.99 2.06 2.07 2.08 2.09 2.09 2.02 2.18 2.13 2.01 1.94 1.93 1.99 1.97 1.95 1.89 1.93 2.09 2.37 2.78 2.97 3.07 3.04 2.85 2.57 2.51 2.54 2.41 2.41 2.32 2.19 2.01 1.91 1.70
2.93 2.94 2.83 2.69 2.58 2.49 2.51 2.19 2.08 1.90 1.94 2.01 2.11 2.05 1.98 1.88 1.93 1.90 1.84 1.95 1.91 1.94 2.04 1.97 1.81 1.70 1.65 1.86 2.30 2.47 2.60 2.70 2.52 2.37 2.09 2.11 2.06 2.20 2.24 1.99 1.83 1.81 1.76